Theta_e
320 319 315 315 314 314 313 310 306 302 306 308 308 312 310 312 315 310 311 318 315 312 311 310 310 310 309 309 308 308 309 310 311 311 312 313 316 316
320 316 313 312 313 314 313 312 308 306 304 308 309 310 310 312 314 311 311 316 314 312 310 310 309 309 308 307 307 307 306 308 308 309 310 310 312 314
316 314 313 316 312 314 313 312 309 310 305 308 308 310 308 305 307 311 314 309 312 312 310 309 309 308 307 306 306 305 305 305 306 307 307 308 309 311
316 313 316 317 312 314 311 310 309 309 307 304 305 306 303 304 306 307 310 313 310 312 310 309 308 308 307 307 306 304 303 303 303 304 305 306 306 308
314 313 314 314 312 312 311 311 311 313 308 305 303 302 302 304 305 306 307 305 311 313 311 310 309 308 307 307 306 304 302 301 301 302 302 303 303 304
316 316 316 314 312 312 311 310 311 310 308 305 300 299 300 302 304 303 302 301 302 310 310 308 308 307 306 306 306 305 303 301 300 300 300 301 301 300
312 312 309 313 314 313 313 308 308 306 304 300 298 296 297 299 300 303 299 302 300 302 302 303 300 299 300 301 304 304 303 301 300 300 299 299 299 299
306 306 306 309 308 309 310 310 309 303 299 297 296 294 294 297 299 300 299 297 294 300 301 300 301 298 299 299 304 303 302 301 300 299 299 298 298 297
304 303 305 305 303 304 307 307 307 307 304 297 294 294 294 296 298 298 298 295 295 298 299 298 301 299 299 301 303 302 301 300 299 299 298 297 297 296
305 304 303 301 300 304 305 301 301 300 300 301 296 296 298 297 298 300 298 297 296 296 297 294 297 300 301 299 303 302 300 299 299 298 298 297 296 295
309 307 307 302 301 302 303 297 296 297 304 303 301 300 298 298 301 297 294 294 293 293 295 294 293 295 299 295 297 303 300 299 299 298 297 297 296 295
305 309 304 300 298 301 299 297 295 296 297 296 296 297 298 300 304 298 295 292 291 289 294 290 290 291 291 294 296 297 298 301 299 298 297 296 296 293
303 302 298 298 298 301 300 299 298 299 301 300 301 300 299 300 301 300 297 295 292 291 297 292 289 289 289 289 292 296 298 297 295 295 295 295 295 294
301 298 297 296 297 298 301 297 297 300 300 299 296 295 297 298 300 300 298 299 297 296 298 296 291 289 288 288 288 292 293 297 295 292 292 294 294 294
299 297 295 294 295 295 296 297 298 298 298 295 295 294 295 296 299 301 300 299 300 301 301 295 292 290 289 288 287 288 289 291 293 291 290 290 289 290
298 296 296 296 296 296 296 297 297 299 298 296 295 296 297 296 295 297 299 299 297 296 297 296 293 290 288 288 288 287 288 286 289 291 290 289 289 289
295 296 295 296 294 295 298 299 298 298 296 296 295 296 296 295 294 294 295 293 292 293 292 291 291 290 289 288 287 288 288 286 287 289 288 287 288 288
296 296 297 295 295 295 296 296 298 299 296 296 295 294 294 294 294 294 294 292 290 289 291 291 290 291 291 290 293 287 287 286 286 287 288 285 286 287
297 299 297 296 297 298 298 297 296 296 297 296 295 293 294 293 294 293 294 293 291 289 289 289 289 289 287 285 289 293 287 287 286 285 286 286 284 286
300 300 299 299 299 299 298 298 296 297 295 295 295 295 294 292 292 292 292 292 291 290 289 289 289 288 287 287 287 288 290 286 286 285 284 286 286 291
301 302 302 302 300 300 299 298 297 297 296 295 294 294 294 292 290 290 290 288 290 290 288 287 290 288 291 290 287 288 289 291 288 284 284 283 283 283
302 303 301 300 300 300 299 298 296 295 295 294 294 294 294 293 291 290 290 291 290 289 289 289 291 292 289 287 284 285 287 288 292 293 293 290 282 280
303 302 299 299 300 299 297 296 296 295 294 294 293 293 294 293 292 291 291 291 289 289 290 289 289 288 288 287 285 284 286 286 286 287 288 294 294 295
Wind_Speed
6 7 6 4 5 4 4 4 6 3 1 2 2 2 1 1 4 3 6 14 15 10 7 11 17 20 24 27 29 29 28 30 31 33 35 35 35 34
4 7 6 4 5 4 3 3 4 4 3 3 1 3 1 1 4 4 8 14 16 10 9 11 16 19 24 24 28 29 28 29 31 32 35 37 38 37
6 7 7 7 4 4 4 4 4 4 5 2 1 1 3 3 5 5 8 7 7 11 10 13 13 16 20 22 26 30 27 28 30 32 34 36 35 37
7 7 8 6 7 6 3 5 4 4 4 4 1 1 4 3 3 5 5 7 5 11 11 12 11 13 16 17 22 26 28 28 29 30 32 34 34 34
8 7 8 7 5 5 3 5 3 2 3 4 3 2 2 3 5 5 4 5 5 13 10 8 8 14 14 17 19 23 25 25 27 29 31 30 34 34
7 7 7 7 7 7 5 5 3 2 4 6 3 3 3 2 4 3 3 3 3 6 6 4 5 12 13 14 19 23 25 26 27 28 28 27 27 33
9 9 7 9 11 7 5 4 6 4 7 5 4 3 3 4 3 2 1 2 2 3 3 1 2 3 5 9 12 20 22 27 28 29 29 28 26 29
11 9 7 12 12 14 12 9 7 7 6 5 3 4 1 1 2 2 2 3 3 4 2 2 1 2 2 4 10 14 19 25 28 29 29 28 26 27
11 10 9 7 9 8 11 14 14 12 8 8 7 3 3 1 2 4 3 3 2 5 3 1 1 2 2 4 8 10 14 21 27 28 30 28 27 25
11 8 11 8 8 9 8 9 7 7 7 7 7 5 4 2 2 1 3 4 2 3 3 3 2 1 2 3 7 7 11 15 23 26 28 30 27 24
10 10 10 9 9 9 10 9 7 5 6 10 9 6 6 6 5 4 4 5 4 4 5 3 4 3 1 4 4 5 5 11 16 24 27 28 27 25
7 11 13 10 10 16 10 9 8 6 6 4 4 3 3 5 9 6 4 5 2 4 4 5 6 4 5 4 6 6 5 7 14 17 24 27 27 14
8 8 6 13 10 14 11 8 7 7 5 5 4 3 2 3 5 4 5 5 3 2 4 4 4 5 3 4 4 6 6 4 5 9 17 21 24 21
9 6 6 13 12 15 10 12 11 8 4 5 5 4 4 2 2 4 4 5 3 4 3 5 3 4 3 4 4 5 5 8 4 5 8 12 17 21
8 9 12 12 13 10 12 11 9 4 3 5 5 3 3 3 4 4 3 4 4 5 6 5 5 4 4 3 2 4 5 5 5 4 5 8 8 8
16 9 8 8 8 7 6 6 3 4 6 6 4 3 2 3 3 3 3 2 4 4 7 7 7 5 4 3 2 3 4 3 5 3 3 4 5 7
11 8 6 4 5 4 3 4 4 4 5 4 3 4 3 3 2 3 3 3 5 3 2 3 4 7 5 3 4 4 4 4 4 5 5 5 4 5
9 10 7 5 7 5 5 4 3 5 4 5 4 5 4 4 3 3 4 5 4 3 3 3 1 3 4 5 8 3 4 3 5 5 5 4 6 5
9 7 8 8 5 5 5 5 4 4 5 5 4 5 5 4 5 3 4 5 3 3 2 1 3 3 3 2 4 5 3 4 4 5 4 3 4 4
8 8 7 7 5 6 6 5 5 5 4 5 5 4 5 5 4 4 4 5 4 2 2 3 2 2 4 4 2 3 3 2 2 3 5 4 4 8
6 7 6 6 6 6 8 7 6 5 5 5 4 5 5 5 4 4 5 6 6 3 3 0 3 4 3 3 4 3 4 5 3 1 2 3 4 6
5 8 6 5 6 9 8 7 5 5 5 4 5 4 5 5 5 4 4 5 3 4 4 1 2 3 4 3 1 3 3 4 5 4 5 7 2 4
6 7 6 6 6 7 8 8 7 5 6 6 5 4 5 5 5 5 5 5 5 4 3 1 2 3 3 2 2 2 5 4 3 5 6 11 7 7
Wind_Direction
118 116 113 106 93 91 98 124 138 141 182 222 115 340 129 104 343 75 139 130 116 100 64 34 26 23 26 15 14 15 14 9 9 6 4 4 5 17
109 112 107 101 94 92 105 88 100 135 125 169 209 184 53 14 318 11 145 129 123 119 77 46 31 28 32 21 21 20 19 13 13 13 10 8 9 16
109 119 106 105 112 90 80 97 88 91 114 347 118 150 50 34 358 17 138 124 133 134 90 57 35 33 30 23 25 24 21 18 18 18 16 15 13 14
130 121 117 109 116 106 109 117 109 112 129 129 97 35 57 12 30 43 101 125 151 137 104 70 46 41 25 20 27 26 24 20 16 18 17 18 16 17
136 135 130 124 111 97 130 111 126 125 115 108 107 45 35 25 24 36 69 126 148 142 128 96 53 48 26 17 26 30 24 24 19 15 14 14 19 18
134 131 127 131 129 131 128 135 120 95 84 108 91 68 55 340 63 64 15 33 123 164 141 152 64 47 24 11 23 31 28 26 26 20 15 12 18 18
107 101 96 106 106 125 112 107 98 84 97 106 89 66 29 26 34 309 177 281 10 95 181 194 13 14 14 356 17 31 29 27 28 24 19 15 19 18
117 111 107 96 91 98 101 98 117 122 109 109 114 98 50 57 0 310 344 43 0 7 96 298 95 355 355 338 357 34 30 30 30 27 23 18 15 18
128 130 121 117 111 111 98 85 80 82 103 125 116 141 107 40 337 354 52 100 129 316 86 230 155 304 334 326 344 37 34 33 29 28 22 18 15 13
139 129 127 140 135 131 110 93 91 95 105 109 115 134 129 107 44 234 182 123 71 352 40 34 331 300 316 294 335 359 43 37 33 28 27 19 15 13
142 132 141 136 141 139 120 110 105 96 104 125 123 120 58 31 39 77 42 79 40 331 1 63 319 340 23 358 350 316 32 41 35 26 26 23 17 14
115 140 134 140 139 146 136 135 130 172 144 123 97 48 49 29 66 82 95 75 92 22 315 60 354 17 13 338 351 6 5 22 31 25 22 22 20 18
133 131 139 137 132 142 141 148 170 174 167 143 129 135 120 106 92 82 92 115 101 81 281 95 14 10 55 324 334 355 17 1 16 26 22 18 21 25
140 136 146 131 126 127 133 146 122 113 124 108 117 131 142 153 152 135 123 104 106 125 44 78 66 58 38 358 349 328 350 30 33 20 22 20 20 22
130 139 143 126 117 108 129 117 107 98 103 121 127 151 158 160 158 117 95 92 65 32 67 64 81 52 67 42 352 334 345 343 18 17 4 22 12 11
124 135 141 123 127 130 105 102 134 180 152 138 160 174 119 87 95 141 142 147 91 45 31 54 57 75 46 26 42 353 347 21 331 358 355 344 10 20
132 135 126 123 127 126 122 138 123 116 116 123 132 133 131 112 92 89 98 92 94 115 61 11 43 75 68 69 23 22 343 348 347 347 20 349 349 13
145 147 140 139 148 149 150 139 125 124 120 109 115 112 120 122 119 81 102 105 105 99 124 220 340 7 8 19 54 6 4 353 344 358 3 19 354 1
148 150 145 152 161 169 155 143 130 144 127 116 125 119 121 109 104 101 117 116 96 94 63 112 84 86 76 355 296 51 48 352 354 2 357 8 336 330
149 150 154 169 172 159 147 131 128 117 114 122 115 125 119 119 103 97 106 125 127 116 59 28 52 100 143 177 187 280 352 38 34 348 341 332 293 323
156 160 168 172 167 142 140 141 136 130 129 125 118 118 136 122 120 126 116 120 132 122 115 321 247 144 152 75 28 325 305 306 166 101 322 359 335 334
152 164 156 150 141 143 143 133 120 126 125 126 122 123 136 143 138 139 137 134 143 161 175 210 43 71 61 94 114 337 334 306 311 300 212 176 161 343
152 150 142 135 139 133 131 127 127 129 131 131 131 119 126 128 138 131 130 132 137 127 146 95 38 65 84 105 113 19 13 14 5 14 1 2 1 5